Regional Weather Roundup
Issued by NWS Raleigh/Durham, NC

Home | Current Version | Previous Version | Text Only | Print | Product List | Glossary On
Versions: 1 2 3 4 5 6 7 8 9 10 11 12 13 14 15 16 17 18 19 20 21 22 23 24 25 26 27 28 29 30 31 32 33 34 35 36 37 38 39 40 41 42 43 44 45 46 47 48 49
000
ASUS42 KRAH 160510
RWRRAH
NORTH CAROLINA WEATHER ROUNDUP
NATIONAL WEATHER SERVICE RALEIGH NC
100 AM EDT TUE SEP 16 2014

NOTE: "FAIR" INDICATES FEW OR NO CLOUDS BELOW 12,000 FEET WITH NO
SIGNIFICANT WEATHER AND/OR OBSTRUCTIONS TO VISIBILITY.

NCZ001-053-055-056-065-067-160600-
WESTERN NORTH CAROLINA

CITY           SKY/WX    TMP DP  RH WIND       PRES   REMARKS
ASHEVILLE      CLOUDY    67  65  93 CALM      30.19F
JEFFERSON      MOCLDY    60  59  97 CALM      30.19F FOG
MORGANTON      CLOUDY    67  67 100 CALM      30.19S FOG
HICKORY        MOCLDY    67  66  97 W3        30.14F FOG
RUTHERFORDTON  CLOUDY    69  68  99 SW3       30.15F FOG
MOUNT AIRY     CLOUDY    65  63  91 CALM      30.14F FOG
BOONE          PTCLDY    61  61  99 CALM      30.20F
$$

NCZ021-022-025-041-071-084-088-160600-
CENTRAL NORTH CAROLINA

CITY           SKY/WX    TMP DP  RH WIND       PRES   REMARKS
CHARLOTTE      CLOUDY    70  68  93 CALM      30.13S FOG
GREENSBORO     CLOUDY    68  65  90 W5        30.11S
WINSTON-SALEM  CLOUDY    68  64  87 S6        30.12F
RALEIGH-DURHAM LGT RAIN  69  65  86 SW5       30.09F
FORT BRAGG     MOCLDY    71  68  93 SW1       30.09F
FAYETTEVILLE   MOCLDY    71  69  93 S3        30.09F
BURLINGTON     CLOUDY    67  64  90 CALM      30.10F
LAURINBURG     CLOUDY    71  69  93 CALM      30.10F
$$

NCZ011-015-027-028-043-044-047-080-103-160600-
NORTHEASTERN NORTH CAROLINA

CITY           SKY/WX    TMP DP  RH WIND       PRES   REMARKS
ROCKY MT-WILSO CLOUDY    67  65  93 CALM      30.09F
GREENVILLE     CLOUDY    70  68  94 CALM      30.10F
WASHINGTON     CLOUDY    69  66  90 CALM      30.10F
ELIZABETH CITY CLOUDY    70  63  78 S5        30.08F
MANTEO         CLOUDY    69  61  76 CALM      30.10F
CAPE HATTERAS  CLOUDY    68  64  87 NE3       30.10F
$$

NCZ078-087-090-091-093-098-101-160600-
SOUTHEASTERN NORTH CAROLINA

CITY           SKY/WX    TMP DP  RH WIND       PRES   REMARKS
LUMBERTON      CLOUDY    71  69  93 S3        30.09F
GOLDSBORO      MOCLDY    69  68  98 S3        30.07F
KINSTON        MOCLDY    68  67  97 CALM      30.10F
KENANSVILLE    MOCLDY    68  66  94 CALM      30.11F
NEW BERN       MOCLDY    72  68  87 CALM      30.11F
CHERRY POINT   CLOUDY    71  66  84 SE3       30.12F
BEAUFORT       CLOUDY    73  68  84 CALM      30.10F
JACKSONVILLE   MOCLDY    71  68  90 CALM      30.10F
WILMINGTON     MOCLDY    72  69  90 CALM      30.10F
$$



USA.gov is the U.S. government's official web portal to all federal, state and local government web resources and services.